AMC-6

Last updated on Thu Oct 30 2025 00:02:47 GMT+0000 (Coordinated Universal Time)

1 26580U 00067A 25302.52261837 .00000098 00000+0 00000+0 0 9995 2 26580 0.0753 71.5374 0003655 148.7322 230.9459 1.00272611 91586
UTC large
Height (km)
Speed (km/s)
/
Latitude / Longitude
Inclination (degrees)
Orbital Period (minutes)
Azimuth
Elevation
Range (km)
Doppler Factor

Next 0 passes for location: London (51.5072 / 0.1276)

Sorry there are no passes over London.